STARLINK-32460, 61914

Orbit data source: Space-Track

STARLINK-32460, 61914 is a payload satellite owned by SpaceX/Seattle (US) in LEO that was launched on Mon, 11 Nov 2024 UTC via an FALCON 9 launch vehicle from the Air Force Eastern Test Range (AFETR). Payload-class satellites include a variety of spacecraft equipped with specific instruments for various scientific and technological missions. These include communications satellites like Starlink; space stations such as the ISS; scientific satellites like the Hubble; Earth observation satellites from companies like Planet Labs, Umbra, and HawkEye 360; GPS; miniature CubeSats for education and research; and military/defense satellites.

Loading next visibility...
Identifier
61914, 2024-207C
Orbit
LEO
Country
Flag of USUS
Related business
Manufacturer
SpaceX/Seattle
Mission
Operational Commercial Communications
Bus & Motor
STARLINK V2M, Unknown motor
Mass
730 kg wet, ~700 kg dry
Launch date (UTC)
2024-11-11 (10 months ago)
Launch vehicle
FALCON 9
Launch site
Air Force Eastern Test Range (AFETR)
Object type
Payload
Rocket body
Debris
Shape & HBR
Box + 2 Pan, 14.5 m
Radar Cross Section
36.964 m², Large (>1 m²)

Expand to show TLE details & history
Last TLE update: 1 day ago

TLE from 1 day ago
0 STARLINK-32460
1 61914U 24207C   25261.17859755  .00030816  00000-0  11237-2 0  9993
2 61914  42.9989 175.5696 0001014 272.4208  87.6528 15.27609619 48345
Epoch: 2025-09-18T04:17Z
TLE epoch observation values (Epoch: 2025-09-18T04:17:10.828Z)
Latitude
0.00002°
Longitude
113.93059°
Altitude
482.707 km
Speed
7.626 km/s
True Right ascension
11h 42m 16s
True Declination
0° 00' 00"
Sunlit
Object was in daylight at epoch
Visualization orbit readout
Latitude
Unknown
Longitude
Unknown
Altitude
Unknown
Speed
Unknown
Apparent Right ascension
Unknown
Apparent Declination
Unknown
Sunlit
N/A
Visualization observer readout
Local Sidereal Time
00:34:24
Azimuth
Unknown
Elevation
Unknown
Doppler factor
Unknown
Orbital elements
Apogee altitude
485.602 km
Perigee altitude
484.21 km
Semi-major axis
6,863.043 km
Eccentricity
0.0001
Inclination
42.9989°
RAAN
175.5696°
Arg. of periapsis
272.4208°
True anomaly
87.66441°
Mean anomaly
87.6528°
Eccentric anomaly
87.6586°
Mean motion
3.8174 °/min
Orbital period
94.3 mins
BSTAR
0.0011237
Loading maneuver chart data...
Computing Atmospheric mass density...
Loading historical data...
Loading historical data...
Loading historical data...
Loading historical data...
Loading historical data...
Loading historical data...
Loading historical data...

Documentation

Showing up to 5 results
|